Tracking 27380 objects as of 6-Jun-2023
HD Live streaming from Space Station
objects crossing your sky now

SL-14 DEB

Track SL-14 DEB now!
10-day predictions


NORAD ID: 19136
Int'l Code: 1978-100J
Perigee: 980.6 km
Apogee: 1,615.8 km
Inclination: 82.4 °
Period: 111.4 minutes
Semi major axis: 7669 km
RCS: 0.0158 m2 (small)
Launch date: October 26, 1978
Source: Commonwealth of Independent States (former USSR) (CIS)
Launch site: PLESETSK MISSILE AND SPACE COMPLEX (PKMTR)

Note: This is SATELLITE DEBRIS
Your satellite tracking list
Your tracking list is empty




NASA's NSSDC Master Catalog

Two Line Element Set (TLE):
1 19136U 78100J   23156.18076383  .00000377  00000-0  92522-3 0  9999
2 19136  82.4211 217.0444 0414165 238.5848 176.8466 12.92640498 65195
Source of the keplerian elements: AFSPC